Location: Santa Cristina
(46.5667°N, 11.7167°E)
Time: 03:46:07
(UTC+00:00)

Okean 3 - Pass Details

Date: 21 April 2021
Orbit: 575 x 601 km, 82.5° (Epoch: 10 May)

Event Time Altitude Azimuth Distance (km) Brightness Sun altitude
Exits shadow 01:59:33 47° 180° (S) 806 3.8 -20.5°
Maximum altitude 02:00:46 83° 99° (E) 612 3.5 -20.4°
Drops below altitude 10° 02:05:06 10° 11° (N) 1,953 6.9 -19.9°
Sets 02:07:19 0° 10° (N) 2,858 7.9 -19.6°
